| time (UTC) | temp F | wind direction | speed MPH | gust MPH | rain 1hr in | rain 24hr in | rain mn in | humidity % | barometer mb |
| 20260503174950 | 56 | 209 | 2.0 | 17.0 | 0.00 | 0.00 | 0.00 | 41 | 1010.3 |
| 20260503174450 | 56 | 355 | 10.0 | 10.0 | 0.00 | 0.00 | 0.00 | 40 | 1010.3 |
| 20260503173950 | 56 | 305 | 9.0 | 12.0 | 0.00 | 0.00 | 0.00 | 40 | 1010.3 |
| 20260503173450 | 56 | 259 | 5.0 | 20.0 | 0.00 | 0.00 | 0.00 | 40 | 1010.3 |
| 20260503172950 | 56 | 278 | 15.0 | 21.0 | 0.00 | 0.00 | 0.00 | 37 | 1010.4 |
| 20260503172453 | 56 | 269 | 8.0 | 15.0 | 0.00 | 0.00 | 0.00 | 38 | 1010.4 |
| 20260503171950 | 56 | 313 | 10.0 | 11.0 | 0.00 | 0.00 | 0.00 | 39 | 1010.4 |
| 20260503171450 | 56 | 209 | 3.0 | 15.0 | 0.00 | 0.00 | 0.00 | 39 | 1010.5 |
| 20260503170950 | 56 | 253 | 11.0 | 22.0 | 0.00 | 0.00 | 0.00 | 38 | 1010.5 |
| 20260503170450 | 56 | 339 | 8.0 | 22.0 | 0.00 | 0.00 | 0.00 | 37 | 1010.5 |
| 20260503150950 | 53 | 231 | 6.0 | 12.0 | 0.00 | 0.00 | 0.00 | 44 | 1010.9 |
| 20260503150450 | 53 | 261 | 4.0 | 15.0 | 0.00 | 0.00 | 0.00 | 43 | 1010.9 |
| 20260503130950 | 49 | 274 | 5.0 | 16.0 | 0.00 | 0.00 | 0.00 | 52 | 1010.8 |
| 20260503130450 | 49 | 298 | 7.0 | 15.0 | 0.00 | 0.00 | 0.00 | 53 | 1010.8 |
| 20260503110452 | 47 | 333 | 6.0 | 13.0 | 0.00 | 0.00 | 0.00 | 56 | 1010.3 |
| 20260503090449 | 47 | 275 | 4.0 | 5.0 | 0.00 | 0.00 | 0.00 | 55 | 1008.7 |
| 20260503081449 | 48 | 332 | 2.0 | 6.0 | 0.00 | 0.00 | 0.00 | 54 | 1008.3 |
| 20260503080949 | 48 | 322 | 3.0 | 4.0 | 0.00 | 0.00 | 0.00 | 54 | 1008.3 |
| 20260503080449 | 48 | 315 | 3.0 | 5.0 | 0.00 | 0.00 | 0.00 | 54 | 1008.3 |
| 20260503072452 | 49 | 302 | 3.0 | 6.0 | 0.00 | 0.00 | 0.00 | 52 | 1008.3 |
| 20260503071949 | 49 | 325 | 4.0 | 6.0 | 0.00 | 0.00 | 0.00 | 52 | 1008.3 |
| 20260503071449 | 49 | 298 | 4.0 | 7.0 | 0.00 | 0.00 | 0.00 | 52 | 1008.3 |
| 20260503070949 | 49 | 314 | 4.0 | 8.0 | 0.00 | 0.00 | 0.00 | 52 | 1008.3 |
| 20260503070449 | 49 | 296 | 3.0 | 7.0 | 0.00 | 0.00 | 0.00 | 51 | 1008.3 |
| 20260503054949 | 51 | 233 | 2.0 | 7.0 | 0.00 | 0.00 | 0.00 | 50 | 1008.5 |
| 20260503054449 | 51 | 332 | 4.0 | 6.0 | 0.00 | 0.00 | 0.00 | 49 | 1008.7 |
| 20260503053949 | 51 | 277 | 2.0 | 4.0 | 0.00 | 0.00 | 0.00 | 50 | 1008.7 |
| 20260503053449 | 51 | 292 | 3.0 | 5.0 | 0.00 | 0.00 | 0.00 | 49 | 1008.7 |
| 20260503052949 | 51 | 319 | 5.0 | 6.0 | 0.00 | 0.00 | 0.00 | 49 | 1008.7 |
| 20260503052451 | 51 | 313 | 2.0 | 3.0 | 0.00 | 0.00 | 0.00 | 49 | 1008.7 |
| 20260503051949 | 51 | 287 | 1.0 | 4.0 | 0.00 | 0.00 | 0.00 | 49 | 1008.7 |
| 20260503051449 | 52 | 296 | 1.0 | 4.0 | 0.00 | 0.00 | 0.00 | 49 | 1008.8 |
| 20260503050948 | 52 | 234 | 3.0 | 6.0 | 0.00 | 0.00 | 0.00 | 49 | 1008.8 |
| 20260503050449 | 52 | 274 | 1.0 | 5.0 | 0.00 | 0.00 | 0.00 | 48 | 1008.8 |
| 20260503045948 | 52 | 323 | 5.0 | 8.0 | 0.00 | 0.00 | 0.00 | 48 | 1008.9 |
| 20260503045448 | 52 | 323 | 4.0 | 7.0 | 0.00 | 0.00 | 0.00 | 48 | 1008.9 |
| 20260503044949 | 52 | 279 | 3.0 | 6.0 | 0.00 | 0.00 | 0.00 | 48 | 1008.9 |
| 20260503044451 | 52 | 259 | 4.0 | 7.0 | 0.00 | 0.00 | 0.00 | 48 | 1008.9 |
| 20260503043949 | 52 | 246 | 3.0 | 5.0 | 0.00 | 0.00 | 0.00 | 47 | 1008.9 |
| 20260503043448 | 52 | 271 | 1.0 | 4.0 | 0.00 | 0.00 | 0.00 | 47 | 1008.9 |
| 20260503042948 | 52 | 306 | 3.0 | 6.0 | 0.00 | 0.00 | 0.00 | 48 | 1008.8 |
| 20260503042451 | 52 | 309 | 3.0 | 7.0 | 0.00 | 0.00 | 0.00 | 48 | 1008.8 |
| 20260503041948 | 52 | 301 | 4.0 | 7.0 | 0.00 | 0.00 | 0.00 | 48 | 1008.8 |
| 20260503041451 | 52 | 272 | 2.0 | 7.0 | 0.00 | 0.00 | 0.00 | 47 | 1009.0 |
| 20260503040951 | 52 | 329 | 3.0 | 8.0 | 0.00 | 0.00 | 0.00 | 48 | 1009.0 |
| 20260503040448 | 53 | 294 | 5.0 | 7.0 | 0.00 | 0.00 | 0.00 | 48 | 1009.0 |
| 20260503035948 | 53 | 305 | 3.0 | 7.0 | 0.00 | 0.00 | 0.00 | 48 | 1009.1 |
| 20260503035451 | 53 | 296 | 3.0 | 5.0 | 0.00 | 0.00 | 0.00 | 47 | 1009.1 |
| 20260503034948 | 53 | 322 | 2.0 | 7.0 | 0.00 | 0.00 | 0.00 | 47 | 1009.1 |
| 20260503034448 | 53 | 311 | 4.0 | 8.0 | 0.00 | 0.00 | 0.00 | 47 | 1008.9 |
| 20260503033951 | 53 | 310 | 3.0 | 6.0 | 0.00 | 0.00 | 0.00 | 47 | 1008.9 |
| 20260503033448 | 53 | 309 | 5.0 | 7.0 | 0.00 | 0.00 | 0.00 | 47 | 1008.9 |
| 20260503032948 | 53 | 264 | 3.0 | 7.0 | 0.00 | 0.00 | 0.00 | 47 | 1008.9 |
| 20260503032448 | 53 | 278 | 3.0 | 7.0 | 0.00 | 0.00 | 0.00 | 46 | 1008.9 |
| 20260503031948 | 54 | 286 | 3.0 | 5.0 | 0.00 | 0.00 | 0.00 | 46 | 1008.9 |
| 20260503031451 | 54 | 323 | 6.0 | 9.0 | 0.00 | 0.00 | 0.00 | 46 | 1008.9 |
| 20260503030951 | 54 | 313 | 5.0 | 7.0 | 0.00 | 0.00 | 0.00 | 45 | 1008.9 |
| 20260503030448 | 54 | 318 | 4.0 | 6.0 | 0.00 | 0.00 | 0.00 | 45 | 1008.9 |
| 20260503025948 | 54 | 270 | 4.0 | 7.0 | 0.00 | 0.00 | 0.00 | 46 | 1008.9 |
| 20260503025448 | 54 | 309 | 3.0 | 6.0 | 0.00 | 0.00 | 0.00 | 45 | 1008.9 |
| 20260503024948 | 54 | 293 | 5.0 | 8.0 | 0.00 | 0.00 | 0.00 | 44 | 1008.9 |
| 20260503024448 | 54 | 304 | 3.0 | 8.0 | 0.00 | 0.00 | 0.00 | 44 | 1009.1 |
| 20260503023948 | 55 | 342 | 6.0 | 9.0 | 0.00 | 0.00 | 0.00 | 44 | 1009.1 |
| 20260503023448 | 55 | 288 | 6.0 | 9.0 | 0.00 | 0.00 | 0.00 | 44 | 1009.1 |
| 20260503022948 | 55 | 263 | 5.0 | 7.0 | 0.00 | 0.00 | 0.00 | 44 | 1009.2 |
| 20260503022451 | 55 | 296 | 3.0 | 4.0 | 0.00 | 0.00 | 0.00 | 44 | 1009.2 |
| 20260503021948 | 55 | 345 | 4.0 | 6.0 | 0.00 | 0.00 | 0.00 | 44 | 1009.2 |
| 20260503021448 | 55 | 281 | 2.0 | 5.0 | 0.00 | 0.00 | 0.00 | 45 | 1009.0 |
| 20260503020948 | 55 | 311 | 4.0 | 5.0 | 0.00 | 0.00 | 0.00 | 45 | 1009.0 |
| 20260503020448 | 55 | 302 | 1.0 | 5.0 | 0.00 | 0.00 | 0.00 | 44 | 1009.0 |
| 20260503015948 | 55 | 252 | 3.0 | 6.0 | 0.00 | 0.00 | 0.00 | 44 | 1008.8 |
| 20260503015448 | 55 | 318 | 7.0 | 7.0 | 0.00 | 0.00 | 0.00 | 45 | 1008.8 |
| 20260503014948 | 55 | 302 | 4.0 | 7.0 | 0.00 | 0.00 | 0.00 | 46 | 1008.8 |
| 20260503014448 | 55 | 305 | 3.0 | 8.0 | 0.00 | 0.00 | 0.00 | 45 | 1008.8 |
| 20260503013951 | 56 | 317 | 5.0 | 6.0 | 0.00 | 0.00 | 0.00 | 44 | 1008.8 |
| 20260503013448 | 56 | 309 | 5.0 | 7.0 | 0.00 | 0.00 | 0.00 | 44 | 1008.8 |
| 20260503012948 | 56 | 298 | 6.0 | 6.0 | 0.00 | 0.00 | 0.00 | 45 | 1009.0 |
| 20260503012448 | 56 | 306 | 3.0 | 8.0 | 0.00 | 0.00 | 0.00 | 43 | 1009.0 |
| 20260503011948 | 56 | 289 | 3.0 | 7.0 | 0.00 | 0.00 | 0.00 | 44 | 1009.0 |
| 20260503011448 | 56 | 250 | 4.0 | 7.0 | 0.00 | 0.00 | 0.00 | 44 | 1008.8 |
| 20260503010948 | 57 | 254 | 7.0 | 8.0 | 0.00 | 0.00 | 0.00 | 43 | 1008.8 |
| 20260503010448 | 57 | 290 | 1.0 | 7.0 | 0.00 | 0.00 | 0.00 | 42 | 1008.8 |
| 20260503005948 | 57 | 261 | 4.0 | 7.0 | 0.00 | 0.00 | 0.00 | 42 | 1008.6 |
| 20260503005448 | 57 | 277 | 2.0 | 4.0 | 0.00 | 0.00 | 0.00 | 42 | 1008.6 |
| 20260503004948 | 57 | 298 | 2.0 | 5.0 | 0.00 | 0.00 | 0.00 | 42 | 1008.6 |
| 20260503004451 | 57 | 268 | 3.0 | 7.0 | 0.00 | 0.00 | 0.00 | 41 | 1008.5 |
| 20260503003948 | 57 | 330 | 2.0 | 7.0 | 0.00 | 0.00 | 0.00 | 41 | 1008.5 |
| 20260503003448 | 57 | 306 | 1.0 | 4.0 | 0.00 | 0.00 | 0.00 | 41 | 1008.5 |
| 20260503002948 | 58 | 304 | 2.0 | 7.0 | 0.00 | 0.00 | 0.00 | 41 | 1008.3 |
| 20260503002448 | 58 | 321 | 4.0 | 6.0 | 0.00 | 0.00 | 0.00 | 40 | 1008.3 |
| 20260503001948 | 58 | 296 | 4.0 | 8.0 | 0.00 | 0.00 | 0.00 | 40 | 1008.3 |
| 20260503001448 | 58 | 252 | 3.0 | 6.0 | 0.00 | 0.00 | 0.00 | 40 | 1008.3 |
| 20260503000948 | 58 | 309 | 4.0 | 5.0 | 0.00 | 0.00 | 0.00 | 40 | 1008.3 |
| 20260503000448 | 58 | 319 | 4.0 | 6.0 | 0.00 | 0.00 | 0.00 | 39 | 1008.3 |
| 20260502235948 | 58 | 308 | 3.0 | 7.0 | 0.00 | 0.00 | 0.00 | 40 | 1008.3 |
| 20260502235448 | 59 | 301 | 5.0 | 7.0 | 0.00 | 0.00 | 0.00 | 39 | 1008.3 |
| 20260502234948 | 59 | 273 | 7.0 | 9.0 | 0.00 | 0.00 | 0.00 | 39 | 1008.3 |
| 20260502234448 | 59 | 319 | 2.0 | 5.0 | 0.00 | 0.00 | 0.00 | 39 | 1008.2 |
| 20260502233948 | 59 | 283 | 3.0 | 6.0 | 0.00 | 0.00 | 0.00 | 39 | 1008.2 |
| 20260502233448 | 59 | 287 | 1.0 | 5.0 | 0.00 | 0.00 | 0.00 | 39 | 1008.2 |
| 20260502232951 | 59 | 299 | 1.0 | 3.0 | 0.00 | 0.00 | 0.00 | 40 | 1008.3 |
| 20260502232448 | 59 | 313 | 2.0 | 6.0 | 0.00 | 0.00 | 0.00 | 38 | 1008.3 |
| 20260502231948 | 59 | 272 | 0.0 | 6.0 | 0.00 | 0.00 | 0.00 | 37 | 1008.3 |
| 20260502231451 | 60 | 278 | 3.0 | 9.0 | 0.00 | 0.00 | 0.00 | 37 | 1008.2 |
| 20260502230948 | 60 | 269 | 5.0 | 7.0 | 0.00 | 0.00 | 0.00 | 37 | 1008.2 |
| 20260502230448 | 60 | 265 | 2.0 | 8.0 | 0.00 | 0.00 | 0.00 | 38 | 1008.2 |
| 20260502225948 | 60 | 287 | 4.0 | 6.0 | 0.00 | 0.00 | 0.00 | 39 | 1008.1 |
| 20260502225448 | 60 | 260 | 2.0 | 5.0 | 0.00 | 0.00 | 0.00 | 38 | 1008.1 |
| 20260502224948 | 60 | 238 | 1.0 | 8.0 | 0.00 | 0.00 | 0.00 | 40 | 1008.1 |
| 20260502224448 | 60 | 313 | 6.0 | 8.0 | 0.00 | 0.00 | 0.00 | 38 | 1008.0 |
| 20260502223948 | 60 | 265 | 3.0 | 8.0 | 0.00 | 0.00 | 0.00 | 38 | 1008.0 |
| 20260502223448 | 60 | 266 | 4.0 | 10.0 | 0.00 | 0.00 | 0.00 | 38 | 1008.0 |
| 20260502222948 | 60 | 322 | 5.0 | 9.0 | 0.00 | 0.00 | 0.00 | 38 | 1007.8 |
| 20260502222448 | 60 | 323 | 9.0 | 10.0 | 0.00 | 0.00 | 0.00 | 37 | 1007.8 |
| 20260502221948 | 60 | 275 | 5.0 | 7.0 | 0.00 | 0.00 | 0.00 | 39 | 1007.8 |
| 20260502221448 | 60 | 317 | 2.0 | 9.0 | 0.00 | 0.00 | 0.00 | 38 | 1007.9 |
| 20260502220948 | 61 | 340 | 7.0 | 12.0 | 0.00 | 0.00 | 0.00 | 37 | 1007.9 |
| 20260502220450 | 61 | 299 | 8.0 | 12.0 | 0.00 | 0.00 | 0.00 | 37 | 1007.9 |
| 20260502215948 | 61 | 283 | 5.0 | 11.0 | 0.00 | 0.00 | 0.00 | 36 | 1008.1 |
| 20260502215448 | 61 | 0 | 2.0 | 7.0 | 0.00 | 0.00 | 0.00 | 39 | 1008.1 |
| 20260502214948 | 61 | 336 | 3.0 | 10.0 | 0.00 | 0.00 | 0.00 | 38 | 1008.1 |
| 20260502214451 | 61 | 287 | 5.0 | 10.0 | 0.00 | 0.00 | 0.00 | 39 | 1007.9 |
| 20260502213951 | 61 | 327 | 2.0 | 10.0 | 0.00 | 0.00 | 0.00 | 39 | 1007.9 |
| 20260502213448 | 61 | 319 | 2.0 | 6.0 | 0.00 | 0.00 | 0.00 | 39 | 1007.9 |
| 20260502212948 | 61 | 300 | 4.0 | 5.0 | 0.00 | 0.00 | 0.00 | 40 | 1007.7 |
| 20260502212448 | 61 | 329 | 5.0 | 8.0 | 0.00 | 0.00 | 0.00 | 40 | 1007.7 |
| 20260502211948 | 61 | 324 | 4.0 | 9.0 | 0.00 | 0.00 | 0.00 | 40 | 1007.7 |
| 20260502211448 | 61 | 5 | 2.0 | 10.0 | 0.00 | 0.00 | 0.00 | 40 | 1007.7 |
| 20260502210950 | 61 | 9 | 6.0 | 12.0 | 0.00 | 0.00 | 0.00 | 40 | 1007.7 |
| 20260502210448 | 61 | 307 | 7.0 | 9.0 | 0.00 | 0.00 | 0.00 | 41 | 1007.7 |
| 20260502205948 | 61 | 42 | 8.0 | 12.0 | 0.00 | 0.00 | 0.00 | 40 | 1007.5 |
| 20260502205451 | 61 | 271 | 3.0 | 9.0 | 0.00 | 0.00 | 0.00 | 39 | 1007.5 |
| 20260502204948 | 61 | 267 | 1.0 | 8.0 | 0.00 | 0.00 | 0.00 | 39 | 1007.5 |
| 20260502204447 | 61 | 318 | 7.0 | 12.0 | 0.00 | 0.00 | 0.00 | 38 | 1007.7 |
| 20260502203948 | 61 | 5 | 4.0 | 13.0 | 0.00 | 0.00 | 0.00 | 38 | 1007.7 |
| 20260502203450 | 61 | 343 | 11.0 | 11.0 | 0.00 | 0.00 | 0.00 | 38 | 1007.7 |
| 20260502202948 | 61 | 321 | 4.0 | 9.0 | 0.00 | 0.00 | 0.00 | 38 | 1007.7 |
| 20260502202450 | 61 | 298 | 8.0 | 13.0 | 0.00 | 0.00 | 0.00 | 38 | 1007.7 |
| 20260502201950 | 61 | 281 | 5.0 | 8.0 | 0.00 | 0.00 | 0.00 | 38 | 1007.7 |
| 20260502201448 | 62 | 319 | 3.0 | 8.0 | 0.00 | 0.00 | 0.00 | 37 | 1007.8 |
| 20260502200947 | 62 | 275 | 6.0 | 10.0 | 0.00 | 0.00 | 0.00 | 38 | 1007.8 |
| 20260502200447 | 62 | 298 | 5.0 | 13.0 | 0.00 | 0.00 | 0.00 | 38 | 1007.8 |
| 20260502195950 | 62 | 315 | 5.0 | 11.0 | 0.00 | 0.00 | 0.00 | 37 | 1008.2 |
| 20260502195447 | 62 | 309 | 10.0 | 12.0 | 0.00 | 0.00 | 0.00 | 36 | 1008.2 |
| 20260502194947 | 62 | 323 | 5.0 | 11.0 | 0.00 | 0.00 | 0.00 | 37 | 1008.2 |
| 20260502194447 | 62 | 284 | 4.0 | 8.0 | 0.00 | 0.00 | 0.00 | 35 | 1008.3 |
| 20260502193947 | 62 | 349 | 6.0 | 9.0 | 0.00 | 0.00 | 0.00 | 35 | 1008.3 |
| 20260502193447 | 62 | 313 | 5.0 | 10.0 | 0.00 | 0.00 | 0.00 | 37 | 1008.3 |
| 20260502192947 | 62 | 340 | 9.0 | 13.0 | 0.00 | 0.00 | 0.00 | 36 | 1008.7 |
| 20260502192447 | 62 | 309 | 3.0 | 14.0 | 0.00 | 0.00 | 0.00 | 38 | 1008.7 |
| 20260502191947 | 62 | 290 | 7.0 | 13.0 | 0.00 | 0.00 | 0.00 | 36 | 1008.7 |
| 20260502191447 | 63 | 288 | 4.0 | 13.0 | 0.00 | 0.00 | 0.00 | 37 | 1008.8 |
| 20260502190947 | 63 | 299 | 1.0 | 10.0 | 0.00 | 0.00 | 0.00 | 38 | 1008.8 |
| 20260502190447 | 63 | 228 | 3.0 | 6.0 | 0.00 | 0.00 | 0.00 | 40 | 1008.8 |
| 20260502185947 | 63 | 184 | 2.0 | 9.0 | 0.00 | 0.00 | 0.00 | 37 | 1009.0 |
| 20260502185447 | 63 | 336 | 9.0 | 11.0 | 0.00 | 0.00 | 0.00 | 40 | 1009.0 |
| 20260502184947 | 62 | 172 | 1.0 | 10.0 | 0.00 | 0.00 | 0.00 | 40 | 1009.0 |
| 20260502184447 | 62 | 190 | 4.0 | 10.0 | 0.00 | 0.00 | 0.00 | 42 | 1009.1 |
| 20260502183947 | 61 | 329 | 4.0 | 10.0 | 0.00 | 0.00 | 0.00 | 45 | 1009.1 |
| 20260502183447 | 60 | 25 | 3.0 | 7.0 | 0.00 | 0.00 | 0.00 | 45 | 1009.1 |
| 20260502182947 | 60 | 346 | 0.0 | 6.0 | 0.00 | 0.00 | 0.00 | 44 | 1009.1 |
| 20260502182447 | 60 | 288 | 2.0 | 9.0 | 0.00 | 0.00 | 0.00 | 42 | 1009.1 |
| 20260502181950 | 60 | 316 | 3.0 | 10.0 | 0.00 | 0.00 | 0.00 | 45 | 1009.1 |
| 20260502181447 | 60 | 336 | 5.0 | 9.0 | 0.00 | 0.00 | 0.00 | 42 | 1009.2 |
| 20260502180947 | 61 | 304 | 7.0 | 9.0 | 0.00 | 0.00 | 0.00 | 44 | 1009.2 |
| 20260502180447 | 61 | 330 | 3.0 | 10.0 | 0.00 | 0.00 | 0.00 | 45 | 1009.2 |